TimePST,TemperatureF,Dew PointF,Humidity,Sea Level PressureIn,VisibilityMPH,Wind Direction,Wind SpeedMPH,Gust SpeedMPH,PrecipitationIn,Events,Conditions,WindDirDegrees,DateUTC
12:53 AM,32.0,21.9,66,30.35,10.0,North,6.9,-,N/A,,Clear,360,2013-01-02 08:53:00
1:53 AM,32.0,21.9,66,30.33,10.0,North,9.2,-,N/A,,Clear,350,2013-01-02 09:53:00
2:53 AM,32.0,21.9,66,30.33,10.0,North,8.1,-,N/A,,Clear,350,2013-01-02 10:53:00
3:53 AM,32.0,21.9,66,30.32,10.0,North,8.1,-,N/A,,Clear,350,2013-01-02 11:53:00
4:53 AM,32.0,21.9,66,30.30,10.0,North,8.1,-,N/A,,Clear,350,2013-01-02 12:53:00
5:53 AM,32.0,21.9,66,30.31,10.0,North,9.2,-,N/A,,Clear,350,2013-01-02 13:53:00
7:53 AM,32.0,21.9,66,30.31,10.0,NNW,8.1,-,N/A,,Clear,340,2013-01-02 15:53:00
8:53 AM,34.0,23.0,64,30.32,10.0,NNW,9.2,-,N/A,,Clear,340,2013-01-02 16:53:00
9:53 AM,36.0,24.1,62,30.33,10.0,North,11.5,-,N/A,,Clear,350,2013-01-02 17:53:00
10:53 AM,39.0,24.1,55,30.33,10.0,North,11.5,-,N/A,,Clear,350,2013-01-02 18:53:00
11:53 AM,41.0,25.0,53,30.31,10.0,North,10.4,-,N/A,,Clear,350,2013-01-02 19:53:00
12:53 PM,44.1,25.0,47,30.29,10.0,NNE,10.4,-,N/A,,Clear,30,2013-01-02 20:53:00
1:53 PM,44.1,26.1,49,30.27,10.0,NNE,9.2,-,N/A,,Clear,20,2013-01-02 21:53:00
2:53 PM,44.1,26.1,49,30.26,10.0,NE,8.1,-,N/A,,Clear,40,2013-01-02 22:53:00
3:53 PM,42.1,26.1,53,30.26,10.0,North,8.1,-,N/A,,Clear,360,2013-01-02 23:53:00
4:53 PM,37.0,24.1,59,30.25,10.0,North,10.4,-,N/A,,Clear,360,2013-01-03 00:53:00
6:53 PM,34.0,23.0,64,30.24,10.0,North,11.5,-,N/A,,Clear,350,2013-01-03 02:53:00
7:53 PM,33.1,21.9,64,30.24,10.0,NNW,9.2,-,N/A,,Clear,340,2013-01-03 03:53:00
8:53 PM,33.1,21.9,64,30.23,10.0,North,9.2,-,N/A,,Clear,350,2013-01-03 04:53:00
9:53 PM,33.1,21.9,64,30.23,10.0,North,11.5,-,N/A,,Clear,350,2013-01-03 05:53:00
10:53 PM,33.1,21.9,64,30.23,10.0,North,11.5,-,N/A,,Clear,350,2013-01-03 06:53:00
11:53 PM,33.1,21.9,64,30.23,10.0,NNW,10.4,-,N/A,,Clear,340,2013-01-03 07:53:00